CDT,Max TemperatureF,Mean TemperatureF,Min TemperatureF,Max Dew PointF,MeanDew PointF,Min DewpointF,Max Humidity, Mean Humidity, Min Humidity, Max Sea Level PressureIn, Mean Sea Level PressureIn, Min Sea Level PressureIn, Max VisibilityMiles, Mean VisibilityMiles, Min VisibilityMiles, Max Wind SpeedMPH, Mean Wind SpeedMPH, Max Gust SpeedMPH,PrecipitationIn, CloudCover, Events, WindDirDegrees
2013-3-1,26,14,1,7,1,-8,72,52,31,30.39,30.35,30.27,10,10,10,8,3,,0.00,0,,40
2013-3-2,28,10,-9,7,0,-17,100,59,34,30.32,30.23,30.11,10,10,10,8,1,,0.00,3,,162
2013-3-3,30,21,12,9,4,0,67,47,27,30.11,30.04,29.99,10,10,10,14,6,21,0.00,8,,133
2013-3-4,28,24,19,19,13,5,93,68,37,30.05,30.00,29.95,10,7,0,18,9,25,0.01,8,,112
2013-3-5,24,18,10,19,17,9,93,86,74,30.29,30.16,30.02,10,4,0,12,5,,0.01,7,,24
2013-3-6,23,12,1,12,8,-6,100,80,59,30.38,30.33,30.29,10,10,0,13,3,,0.00,4,,320
2013-3-7,30,12,-7,16,7,-11,100,75,51,30.35,30.30,30.25,10,10,0,12,4,20,0.00,1,,140
2013-3-8,32,24,15,25,18,12,93,78,69,30.27,30.20,30.07,10,7,0,10,6,,0.08,5,,157
2013-3-9,32,29,26,30,27,21,100,89,74,30.07,29.85,29.73,10,4,0,8,4,,0.15,8,,124
2013-3-10,30,22,14,28,20,9,93,79,64,30.04,29.97,29.82,10,8,4,18,3,23,0.06,8,,8
2013-3-11,24,19,14,18,15,9,93,79,69,29.98,29.83,29.73,10,10,5,12,7,,0.00,8,,347
2013-3-12,21,16,12,14,8,1,86,68,46,30.15,29.93,29.77,10,10,2,22,9,31,0.00,5,,327
2013-3-13,30,16,3,12,7,0,92,67,40,30.31,30.23,30.15,10,10,2,8,5,,0.00,1,,292
2013-3-14,39,28,17,27,20,10,93,75,61,30.16,30.06,29.97,10,10,7,16,6,,0.00,6,,189
2013-3-15,30,21,12,25,13,5,86,70,46,30.02,29.98,29.92,10,8,0,14,8,20,0.00,8,,18
2013-3-16,15,6,-2,5,-1,-9,92,70,53,30.21,30.08,30.00,10,9,2,20,10,26,0.00,3,,321
2013-3-17,21,2,-18,7,-6,-22,100,63,39,30.22,30.07,29.81,10,10,10,18,5,23,0.00,4,,148
2013-3-18,24,17,8,21,14,3,93,82,58,29.80,29.56,29.44,10,4,1,25,14,34,0.00,8,,192
2013-3-19,17,9,1,3,-1,-6,85,66,45,30.07,29.90,29.67,10,9,2,24,19,31,0.00,2,,299
2013-3-20,19,10,0,3,-2,-8,79,63,49,30.09,30.07,30.04,10,10,5,21,13,29,0.00,3,,316
2013-3-21,24,10,-5,16,4,-9,100,74,54,30.09,30.04,30.01,10,10,0,9,3,,0.03,0,,328
2013-3-22,32,15,-2,19,9,-6,92,73,55,30.06,30.04,30.01,10,10,10,8,2,,0.00,1,,335
2013-3-23,35,22,10,21,15,7,100,72,48,30.13,30.09,30.05,10,10,10,9,2,,0.00,5,,344
2013-3-24,30,26,21,21,18,10,86,70,55,30.11,30.08,30.04,10,9,1,12,4,18,0.00,7,,4
2013-3-25,35,24,12,18,13,7,85,63,41,30.21,30.15,30.09,10,10,9,17,9,22,0.00,3,,337
2013-3-26,37,26,15,21,16,10,86,62,45,30.27,30.24,30.21,10,10,10,10,6,,0.00,6,,325
2013-3-27,41,31,21,23,17,12,80,56,33,30.32,30.29,30.27,10,10,10,6,1,,0.00,4,,311
2013-3-28,44,28,12,19,15,9,92,57,31,30.32,30.28,30.24,10,10,10,7,1,,0.00,0,,196
2013-3-29,48,34,21,30,24,16,80,62,43,30.26,30.16,30.00,10,10,10,14,4,18,0.00,4,,166
2013-3-30,48,42,33,36,31,25,100,71,46,30.00,29.86,29.80,10,6,0,16,6,23,0.20,4,,283
2013-3-31,33,26,17,27,16,5,86,63,46,30.05,29.86,29.72,10,9,2,25,15,34,0.00,7,,314